Starlink 31989

operational
NORAD ID: 59959 Int'l Des: 2024-107 Owner: SPXS Country: US Constellation: starlink
LEOCIRCULAR

About Starlink 31989

Description loading...

Live Position

Loading 3D Globe...

Upcoming Passes

Altitude History

Altitude vs Time

uPlot chart will show altitude changes over time

Two-Line Element Set

1 59959U 24107Q 25308.19052794 .00000175 00000-0 18024-4 0 9998
2 59959 53.1610 288.3480 0001319 97.3945 262.7205 15.30192920 80586
Epoch: Nov 4, 2025 • Age: 28 hours

Current Status

Altitude 481.6 km
Velocity 7.62 km/s
Sub-Earth Point -21.68°S, 46.41°W
Launch Date Jun 5, 2024
Age 1.4 years
Type internet

Technical Details

Classification Payload
Mass 730.00 kg
Dry Mass 700.00 kg
Total Mass 730.00 kg
Length 0.30 m
Diameter 4.10 m
Span 29.00 m
Shape Box + pan
Manufacturer SPXS
Bus Type Starlink V2M
Phase Status In Orbit
Owner/State SPXS/US

Large Constellations

Loading constellations...